Regional Weather Roundup
Issued by NWS Charleston, WV

Home | Current Version | Previous Version | Graphics & Text | Print | Product List | Glossary On
Versions: 1 2 3 4 5 6 7 8 9 10 11 12 13 14 15 16 17 18 19 20 21 22 23 24 25 26 27 28 29 30 31 32 33 34 35 36 37 38 39 40 41 42 43 44 45 46 47 48 49 50
000
ASUS41 KRLX 151010
RWRRLX
West Virginia Regional Weather Roundup
National Weather Service Charleston WV
600 AM EDT MON SEP 15 2014

Note: "fair" indicates few or no clouds below 12,000 feet with no
significant weather and/or obstructions to visibility.

WVZ003-151100-
Northern Panhandle of West Virginia

CITY           SKY/WX    TMP DP  RH WIND       PRES   REMARKS
WHEELING       CLEAR     44  43  96 SE5       30.23S FOG
$$

WVZ009-151100-
Northwest West Virginia

CITY           SKY/WX    TMP DP  RH WIND       PRES   REMARKS
PARKERSBURG    CLOUDY    46  45  96 CALM      30.25S
$$

WVZ006-151100-
Western West Virginia

CITY           SKY/WX    TMP DP  RH WIND       PRES   REMARKS
HUNTINGTON     FOG       48  48 100 CALM      30.21R VSB 1/4
$$

WVZ015-151100-
West Central West Virginia

CITY           SKY/WX    TMP DP  RH WIND       PRES   REMARKS
CHARLESTON     FOG       50  50 100 CALM      30.22S VSB 1/2
$$

WVZ031-151100-
North Central West Virginia

CITY           SKY/WX    TMP DP  RH WIND       PRES   REMARKS
CLARKSBURG     FOG       49  48  97 CALM      30.24S VSB 1/4
MORGANTOWN     CLEAR     47  43  86 CALM      30.25S
$$

WVZ035-042-045-151100-
South Central West Virginia

CITY           SKY/WX    TMP DP  RH WIND       PRES   REMARKS
BECKLEY        CLOUDY    57  55  93 S3        30.25R FOG
BLUEFIELD      FOG       58  55  90 CALM      30.26S VSB 1/2
LEWISBURG      FOG       53  52  95 CALM      30.25S VSB 1/2
$$

WVZ047-151100-
Northern Mountains of West Virginia

CITY           SKY/WX    TMP DP  RH WIND       PRES   REMARKS
ELKINS         CLOUDY    52  51  97 CALM      30.26R FOG
$$

WVZ052-151100-
Eastern Panhandle of West Virginia

CITY           SKY/WX    TMP DP  RH WIND       PRES   REMARKS
MARTINSBURG    CLEAR     46  42  86 CALM      30.24R
PETERSBURG     FOG       50  48  93 CALM      30.26R VSB 1/4
$$


USA.gov is the U.S. government's official web portal to all federal, state and local government web resources and services.